[[{"header":{"parameterUnit":"m.s-1","parameterCategory":1,"la1":30.2991,"la2":30.254,"lo1":-89.0895,"lo2":-89.0444,"dy":0.0017,"dx":0.0017,"nx":28,"ny":28,"refTime":"2025-04-24T09:00:00:Z","depth":0,"parameterNumber":2,"parameterNumberName":"U-component_of_WINDS"},"data":[0,0,0,0,0,0,0,0,0,0,0,0,0,0,0,0,0,0,0,0,0,0,0,0,0,0,0,0,0,0,0,0,0,0,0,0,0,0,0,0,0,0,0,0,0,0,0,0,0,0,0,0,0,0,0,0,0,0,-2.1289,-2.1289,0,-2.1339,-2.134,-2.134,-2.1334,-2.1333,-2.1332,-2.1332,-2.1382,-2.1384,-2.1386,0,0,0,0,0,0,0,0,0,0,0,0,0,-2.1185,-2.1187,-2.1289,-2.1289,-2.129,-2.1339,-2.134,-2.1341,-2.1334,-2.1333,-2.1332,-2.1331,-2.1381,-2.1384,-2.1386,0,0,0,0,0,0,0,0,0,0,0,0,0,-2.1232,-2.1188,-2.1289,-2.1293,-2.1294,-2.1339,-2.134,-2.1341,-2.1334,-2.1333,-2.1332,-2.1331,-2.138,-2.1384,-2.1387,-2.1431,0,0,-2.1396,-2.1398,0,0,0,0,0,0,0,0,-2.123,-2.1236,-2.1291,-2.1293,-2.1294,-2.1329,-2.1322,-2.1371,-2.1335,-2.1319,-2.1332,-2.133,-2.1365,-2.137,-2.1382,-2.1433,-2.1435,-2.1397,-2.1399,-2.14,-2.1401,0,0,0,0,0,0,0,-2.1226,-2.1234,-2.1309,-2.1292,-2.1294,-2.1292,-2.1297,-2.1331,-2.1348,-2.132,-2.132,-2.1326,-2.1366,-2.1379,-2.1383,-2.1436,-2.1397,-2.1399,-2.1401,-2.1402,-2.1526,-2.1527,0,0,0,0,0,0,-2.1222,-2.1231,-2.1307,-2.131,-2.1258,-2.1294,-2.13,-2.1319,-2.1348,-2.1351,-2.1327,-2.1325,-2.1374,-2.1379,-2.1385,-2.1438,-2.14,-2.1403,-2.1405,-2.1524,-2.1526,-2.1527,0,0,0,0,0,0,-2.122,-2.1229,-2.1305,-2.1271,-2.128,-2.1298,-2.1318,-2.1321,-2.1334,-2.1353,-2.1356,-2.1337,-2.1373,-2.138,-2.1419,-2.1439,-2.1404,-2.1407,-2.1523,-2.1525,-2.1527,-2.1545,0,0,0,0,0,0,-2.1217,-2.1228,-2.1246,-2.1271,-2.1282,-2.1339,-2.132,-2.1322,-2.1339,-2.1338,-2.1364,-2.1367,-2.1373,-2.1415,-2.1422,-2.1443,-2.141,-2.1521,-2.1524,-2.1526,-2.1542,-2.1547,-2.1551,0,0,0,0,0,-2.1213,-2.1248,-2.1247,-2.1256,-2.1304,-2.134,-2.1347,-2.1353,-2.1341,-2.1358,-2.1371,-2.1366,-2.1436,-2.1419,-2.1427,-2.1449,-2.152,-2.1523,-2.1526,-2.154,-2.1546,-2.1551,0,0,0,0,0,0,-2.1224,-2.1252,-2.125,-2.1294,-2.1315,-2.1339,-2.1361,-2.1359,-2.1384,-2.1381,-2.1388,-2.1394,-2.1434,-2.1446,-2.1426,-2.1493,-2.1476,-2.1481,-2.1484,-2.149,-2.1494,-2.149,-2.1412,0,0,0,0,0,-2.1232,-2.126,-2.1282,-2.1319,-2.133,-2.1344,-2.136,-2.1363,-2.1385,-2.1394,-2.1409,-2.143,-2.1456,-2.1474,-2.15,-2.1544,-2.1549,-2.1564,-2.1568,-2.1571,-2.1575,-2.1599,-2.1606,-2.1537,-2.1537,-2.1537,0,0,-2.1248,-2.1267,-2.1284,-2.1322,-2.1338,-2.1366,-2.1351,-2.1382,-2.1402,-2.1398,-2.1436,-2.1448,-2.1472,-2.1514,-2.1533,-2.1525,-2.1596,-2.1575,-2.1578,-2.158,-2.1603,-2.161,-2.1615,-2.154,-2.1539,-2.1539,0,0,-2.1291,-2.1308,-2.1341,-2.1358,-2.1383,-2.1392,-2.14,-2.1425,-2.1433,-2.1471,-2.1468,-2.1493,-2.1539,-2.1556,-2.157,-2.162,-2.1616,-2.1628,-2.1651,-2.1674,-2.168,-2.1684,-2.1702,-2.1708,-2.1632,-2.1632,-2.1632,0,-2.1308,-2.1351,-2.1358,-2.1389,-2.1405,-2.1403,-2.1436,-2.1452,-2.1484,-2.1495,-2.1486,-2.1544,-2.1559,-2.1605,-2.1617,-2.1629,-2.1638,-2.1625,-2.1678,-2.1683,-2.1688,-2.1704,-2.1711,-2.1633,-2.1633,-2.1633,-2.1633,0,-2.1369,-2.1399,-2.1422,-2.1454,-2.1473,-2.1505,-2.1516,-2.1535,-2.1537,-2.1546,-2.1585,-2.1604,-2.1633,-2.1645,-2.1647,-2.1691,-2.1685,-2.1677,-2.1659,-2.1695,-2.1711,-2.1717,-2.1635,-2.1635,-2.1634,-2.1634,0,0,-2.1421,-2.1456,-2.1464,-2.1479,-2.1506,-2.1529,-2.156,-2.159,-2.1605,-2.1627,-2.1653,-2.1693,-2.1685,-2.1702,-2.1706,-2.1726,-2.1764,-2.1716,-2.1716,-2.1724,-2.1813,-2.1818,-2.1825,-2.1762,-2.1763,-2.1764,-2.1811,0,-2.1467,-2.1522,-2.153,-2.1579,-2.1606,-2.1604,-2.1631,-2.1651,-2.1661,-2.1685,-2.1696,-2.1724,-2.1713,-2.1722,-2.1743,-2.1755,-2.1782,-2.1752,-2.1785,-2.1786,-2.1779,-2.1834,-2.184,-2.1883,-2.1817,-2.1818,-2.1819,0,-2.1528,-2.1552,-2.1604,-2.1627,-2.1639,-2.1663,-2.169,-2.1714,-2.1736,-2.1742,-2.176,-2.1762,-2.1793,-2.1775,-2.1819,-2.1798,-2.1812,-2.182,-2.1822,-2.1825,-2.1804,-2.1837,-2.1897,-2.1903,-2.1828,-2.1828,-2.1827,0,-2.1559,-2.1605,-2.1642,-2.1654,-2.1683,-2.17,-2.1713,-2.1734,-2.175,-2.1774,-2.1785,-2.1812,-2.1826,-2.1847,-2.1855,-2.1841,-2.1898,-2.1881,-2.1903,-2.1903,-2.1915,-2.1914,-2.1977,-2.1925,-2.1925,-2.1925,-2.1925,0,-2.1609,-2.1641,-2.1657,-2.1679,-2.1714,-2.1722,-2.1757,-2.1769,-2.1788,-2.1812,-2.1812,-2.1835,-2.1845,-2.1869,-2.1876,-2.1911,-2.1917,-2.1922,-2.1924,-2.1922,-2.1922,-2.1931,-2.1928,-2.1926,-2.1926,-2.1926,-2.1925,0,-2.1651,-2.1663,-2.1703,-2.1726,-2.1733,-2.1758,-2.1778,-2.18,-2.181,-2.1841,-2.1849,-2.1864,-2.1893,-2.1903,-2.1938,-2.1942,-2.1982,-2.1981,-2.1975,-2.1975,-2.1997,-2.1995,-2.2068,-2.2077,-2.202,-2.202,-2.2021,0,-2.1682,-2.1706,-2.1733,-2.1749,-2.1763,-2.179,-2.1807,-2.1815,-2.1833,-2.186,-2.1879,-2.1907,-2.193,-2.1976,-2.199,-2.2017,-2.2016,-2.204,-2.202,-2.2017,-2.2016,-2.2014,-2.2016,-2.2043,-2.2044,-2.2044,-2.2045,0,-2.1736,-2.174,-2.1765,-2.1792,-2.1813,-2.1835,-2.1856,-2.1869,-2.1881,-2.1901,-2.193,-2.1948,-2.1984,-2.2012,-2.2039,-2.2052,-2.205,-2.2051,-2.2057,-2.2056,-2.2051,-2.2053,-2.1985,-2.2049,-2.2049,-2.2048,-2.2048,-2.2048,-2.1773,-2.1794,-2.1816,-2.1844,-2.186,-2.188,-2.1901,-2.1914,-2.1939,-2.1969,-2.1972,-2.2004,-2.2025,-2.2061,-2.2075,-2.2099,-2.2093,-2.2102,-2.2105,-2.2107,-2.2108,-2.2047,-2.2104,-2.2104,-2.2104,-2.2104,-2.2104,0,-2.1826,-2.184,-2.1866,-2.1895,-2.1917,-2.1914,-2.1937,-2.1955,-2.1983,-2.2003,-2.2026,-2.2059,-2.2086,-2.2103,-2.213,-2.2146,-2.2146,-2.2153,-2.2152,-2.2154,-2.2113,-2.2104,-2.2153,-2.2153,-2.2153,-2.2153,-2.2153,-2.2153,-2.1856,-2.1892,-2.1899,-2.1943,-2.1957,-2.1988,-2.2001,-2.2019,-2.2035,-2.2073,-2.2095,-2.2106,-2.2124,-2.2153,-2.2177,-2.2181,-2.2191,-2.2199,-2.2202,-2.2162,-2.2157,-2.2153,-2.2144,-2.2201,-2.2201,-2.2242,-2.2242,-2.2242]},{"header":{"parameterUnit":"m.s-1","parameterCategory":1,"la1":30.2991,"la2":30.254,"lo1":-89.0895,"lo2":-89.0444,"dy":0.0017,"dx":0.0017,"nx":28,"ny":28,"refTime":"2025-04-24T09:00:00:Z","depth":0,"parameterNumber":3,"parameterNumberName":"V-component_of_WINDS"},"data":[0,0,0,0,0,0,0,0,0,0,0,0,0,0,0,0,0,0,0,0,0,0,0,0,0,0,0,0,0,0,0,0,0,0,0,0,0,0,0,0,0,0,0,0,0,0,0,0,0,0,0,0,0,0,0,0,0,0,1.9594,1.9594,0,1.9613,1.9613,1.9614,1.9572,1.9571,1.957,1.9568,1.9586,1.9587,1.9589,0,0,0,0,0,0,0,0,0,0,0,0,0,1.952,1.9522,1.9594,1.9594,1.9595,1.9613,1.9613,1.9614,1.9572,1.9571,1.9569,1.9568,1.9585,1.9587,1.9589,0,0,0,0,0,0,0,0,0,0,0,0,0,1.9547,1.9523,1.9594,1.9576,1.9575,1.9613,1.9613,1.9614,1.9573,1.9571,1.9569,1.9567,1.9585,1.9587,1.959,1.9645,0,0,1.9597,1.9598,0,0,0,0,0,0,0,0,1.9546,1.955,1.9579,1.9578,1.9576,1.9588,1.9594,1.9624,1.9573,1.9574,1.9568,1.9566,1.9588,1.959,1.9598,1.9646,1.9647,1.9598,1.9599,1.96,1.9601,0,0,0,0,0,0,0,1.9544,1.9549,1.9602,1.9579,1.9578,1.9567,1.9568,1.9599,1.9592,1.9573,1.957,1.9573,1.9587,1.9596,1.9598,1.9647,1.9598,1.96,1.9601,1.9602,1.9741,1.9743,0,0,0,0,0,0,1.9545,1.9548,1.9601,1.9602,1.9556,1.957,1.9572,1.9586,1.9591,1.959,1.9575,1.9571,1.9592,1.9595,1.9599,1.9664,1.96,1.9603,1.9604,1.9739,1.9742,1.9744,0,0,0,0,0,0,1.9543,1.955,1.96,1.9574,1.958,1.9573,1.959,1.9588,1.9596,1.9593,1.9591,1.9586,1.9591,1.9595,1.9634,1.9664,1.9604,1.9606,1.9736,1.974,1.9743,1.9795,0,0,0,0,0,0,1.9541,1.955,1.9571,1.9575,1.9581,1.9636,1.9592,1.959,1.9601,1.9597,1.9602,1.9601,1.959,1.963,1.9637,1.9666,1.9608,1.9734,1.9738,1.9742,1.9791,1.98,1.9807,0,0,0,0,0,1.9539,1.9585,1.9572,1.9579,1.9608,1.9638,1.9641,1.9628,1.9604,1.9625,1.9623,1.9601,1.966,1.9635,1.9641,1.9672,1.9732,1.9737,1.9741,1.9787,1.9798,1.9807,0,0,0,0,0,0,1.9584,1.9585,1.9571,1.962,1.9629,1.9631,1.9657,1.964,1.9656,1.9651,1.9633,1.9635,1.9677,1.9679,1.9651,1.9726,1.9692,1.9698,1.9724,1.9734,1.9743,1.9741,1.961,0,0,0,0,0,1.9599,1.9624,1.9623,1.9666,1.9672,1.9664,1.9676,1.9665,1.9674,1.9677,1.9678,1.9686,1.9707,1.9721,1.9739,1.9791,1.9791,1.9815,1.9824,1.9831,1.9836,1.9863,1.9874,1.976,1.976,1.976,0,0,1.9632,1.9635,1.9652,1.9675,1.9681,1.9706,1.9667,1.9696,1.9714,1.9681,1.9718,1.9719,1.9727,1.9773,1.9793,1.9775,1.9868,1.9837,1.9842,1.9844,1.9869,1.988,1.989,1.9763,1.9763,1.9762,0,0,1.9703,1.9709,1.9745,1.9752,1.9762,1.9756,1.9765,1.977,1.9769,1.9806,1.9782,1.9803,1.9839,1.9846,1.9854,1.9929,1.991,1.9936,1.998,2.0006,2.0015,2.0023,2.005,2.0059,1.9941,1.9942,1.9942,0,1.9742,1.978,1.9766,1.9796,1.9807,1.9779,1.9816,1.9823,1.9838,1.9846,1.9826,1.9871,1.9874,1.9921,1.9939,1.9947,1.9956,1.9935,2.0015,2.0023,2.003,2.0055,2.0065,1.9945,1.9944,1.9944,1.9944,0,1.9827,1.9853,1.9882,1.9898,1.9912,1.9945,1.9935,1.9951,1.9939,1.9935,1.9973,1.9977,1.9996,2.0006,1.9994,2.0051,2.004,2.0018,1.9983,2.0044,2.0067,2.0077,1.9949,1.9948,1.9947,1.9946,0,0,1.9927,1.9935,1.9946,1.9953,1.9962,1.9982,2.0013,2.0033,2.0046,2.0058,2.0084,2.0115,2.0095,2.0104,2.0093,2.0116,2.0175,2.0091,2.0091,2.0107,2.0238,2.0254,2.0265,2.0162,2.0164,2.0166,2.0237,0,1.9998,2.0053,2.0042,2.0096,2.012,2.0094,2.0122,2.013,2.0127,2.0147,2.0144,2.0166,2.0138,2.0144,2.0166,2.0163,2.0201,2.0158,2.0186,2.0187,2.0184,2.0277,2.0295,2.0362,2.0246,2.0247,2.0248,0,2.0088,2.0104,2.016,2.0166,2.0175,2.02,2.0217,2.0236,2.0245,2.0241,2.0252,2.0237,2.0267,2.0232,2.0274,2.0245,2.0256,2.0256,2.0259,2.026,2.0221,2.0281,2.0383,2.0393,2.0263,2.0262,2.026,0,2.0155,2.019,2.0229,2.0236,2.0243,2.0261,2.0264,2.0271,2.0283,2.0298,2.0305,2.0323,2.0333,2.0346,2.0336,2.0311,2.0379,2.0343,2.0377,2.0377,2.0392,2.0391,2.0496,2.04,2.0399,2.0399,2.0399,0,2.0235,2.0271,2.0259,2.0283,2.0322,2.0308,2.0347,2.0347,2.0353,2.0376,2.0355,2.0377,2.0361,2.0382,2.0373,2.0409,2.0414,2.0411,2.0409,2.0413,2.0414,2.042,2.0415,2.0402,2.0401,2.0401,2.04,0,2.0317,2.031,2.0351,2.0354,2.0356,2.0385,2.0387,2.0409,2.0405,2.0434,2.044,2.0434,2.0457,2.0448,2.0472,2.0466,2.0512,2.0503,2.051,2.0507,2.0541,2.0538,2.0654,2.0668,2.0562,2.0563,2.0564,0,2.0368,2.0395,2.0402,2.0416,2.0422,2.0445,2.0457,2.0444,2.0458,2.047,2.0491,2.0512,2.0528,2.0566,2.0563,2.0581,2.0572,2.0612,2.0575,2.0579,2.0573,2.0571,2.0574,2.0619,2.062,2.0621,2.0622,0,2.0461,2.0456,2.0476,2.0494,2.051,2.0524,2.0536,2.0548,2.0536,2.0552,2.0576,2.0589,2.0614,2.0635,2.0651,2.0654,2.0636,2.0634,2.0642,2.0647,2.0649,2.0648,2.0529,2.0631,2.063,2.0629,2.0629,2.0629,2.0528,2.0551,2.056,2.0582,2.059,2.0601,2.0622,2.0621,2.0641,2.066,2.0651,2.0679,2.0686,2.0706,2.0712,2.0732,2.0717,2.0729,2.0733,2.0736,2.074,2.0647,2.0735,2.0735,2.0735,2.0734,2.0734,0,2.0619,2.0624,2.0644,2.0662,2.068,2.0662,2.0674,2.069,2.0714,2.0723,2.074,2.0767,2.0787,2.0786,2.0805,2.0821,2.0814,2.0827,2.0825,2.0826,2.0753,2.0744,2.0833,2.0833,2.0833,2.0833,2.0833,2.0833,2.0669,2.0706,2.0703,2.0744,2.0748,2.0775,2.0783,2.0794,2.0801,2.0832,2.0849,2.0849,2.0853,2.0872,2.089,2.0889,2.0897,2.0913,2.0909,2.0841,2.0831,2.0822,2.0813,2.0915,2.0915,2.0981,2.0981,2.0982]}]]